CW8248 Weather Reports


Display with metric or nautical units.
time (UTC)temp
F
wind
direction
speed
MPH
gust
MPH
rain 1hr
in
rain 24hr
in
rain mn
in
humidity
%
barometer
mb
20260905234556 67 38 0.0 2.0 0.00 0.00 0.00 50 1016.0
20260905234050 67 38 0.0 2.0 0.00 0.00 0.00 48 1015.9
20260905233551 68 38 0.0 1.0 0.00 0.00 0.00 51 1015.9
20260905233053 68 38 0.0 3.0 0.00 0.00 0.00 50 1015.8
20260905232550 68 38 0.0 3.0 0.00 0.00 0.00 47 1015.8
20260905232052 68 38 0.0 2.0 0.00 0.00 0.00 45 1015.7
20260905231550 69 69 0.0 4.0 0.00 0.00 0.00 45 1015.8
20260905231050 68 69 0.0 4.0 0.00 0.00 0.00 48 1015.8
20260905230552 68 9 0.0 4.0 0.00 0.00 0.00 47 1015.8
20260905230049 68 4 0.0 3.0 0.00 0.00 0.00 47 1016.0
20260905225550 68 360 1.0 4.0 0.00 0.00 0.00 45 1015.8
20260905225051 68 9 0.0 5.0 0.00 0.00 0.00 44 1015.8
20260905224549 68 357 1.0 5.0 0.00 0.00 0.00 44 1015.8
20260905224049 69 56 0.0 3.0 0.00 0.00 0.00 44 1015.7
20260905223547 70 27 0.0 4.0 0.00 0.00 0.00 44 1015.8
20260905223048 69 358 0.0 5.0 0.00 0.00 0.00 44 1015.9
20260905222547 70 77 0.0 5.0 0.00 0.00 0.00 42 1015.8
20260905222046 70 20 0.0 5.0 0.00 0.00 0.00 45 1015.9
20260905221549 69 21 0.0 5.0 0.00 0.00 0.00 43 1016.0
20260905221047 69 343 1.0 3.0 0.00 0.00 0.00 43 1015.9
20260905220546 70 191 1.0 3.0 0.00 0.00 0.00 42 1015.9
20260905220046 70 54 0.0 7.0 0.00 0.00 0.00 46 1015.8
20260905215546 69 13 2.0 7.0 0.00 0.00 0.00 42 1015.9
20260905215044 70 191 0.0 3.0 0.00 0.00 0.00 41 1015.9
20260905214545 72 191 1.0 3.0 0.00 0.00 0.00 41 1016.1
20260905214049 74 191 0.0 3.0 0.00 0.00 0.00 40 1016.1
20260905213543 75 191 2.0 4.0 0.00 0.00 0.00 39 1016.2
20260905213047 74 191 3.0 5.0 0.00 0.00 0.00 37 1016.2
20260905212543 73 179 2.0 5.0 0.00 0.00 0.00 37 1016.2
20260905212042 75 179 2.0 4.0 0.00 0.00 0.00 41 1016.3
20260905211600 73 179 2.0 4.0 0.00 0.00 0.00 38 1016.2
20260905211044 72 179 0.0 5.0 0.00 0.00 0.00 41 1016.3
20260905210542 73 179 2.0 6.0 0.00 0.00 0.00 36 1016.3
20260905210053 73 179 4.0 6.0 0.00 0.00 0.00 39 1016.4
20260905205541 72 179 4.0 7.0 0.00 0.00 0.00 40 1016.4
20260905205041 73 178 4.0 7.0 0.00 0.00 0.00 41 1016.4
20260905204544 73 181 5.0 7.0 0.00 0.00 0.00 39 1016.4
20260905204044 76 179 4.0 6.0 0.00 0.00 0.00 39 1016.4
20260905203541 77 196 4.0 7.0 0.00 0.00 0.00 38 1016.4
20260905203041 79 235 4.0 7.0 0.00 0.00 0.00 35 1016.4
20260905202540 82 196 4.0 7.0 0.00 0.00 0.00 33 1016.4
20260905202040 82 212 4.0 6.0 0.00 0.00 0.00 31 1016.5
20260905201549 80 231 4.0 6.0 0.00 0.00 0.00 36 1016.5
20260905201039 80 200 4.0 6.0 0.00 0.00 0.00 36 1016.6
20260905200539 79 191 4.0 7.0 0.00 0.00 0.00 36 1016.6
20260905200037 78 213 4.0 7.0 0.00 0.00 0.00 39 1016.6
20260905195535 75 229 4.0 6.0 0.00 0.00 0.00 43 1016.7
20260905195034 73 222 3.0 6.0 0.00 0.00 0.00 49 1016.7
20260905194534 73 173 3.0 5.0 0.00 0.00 0.00 45 1016.9
20260905194034 73 191 3.0 5.0 0.00 0.00 0.00 41 1016.9
20260905193532 72 182 1.0 8.0 0.00 0.00 0.00 43 1017.0
20260905193036 76 223 4.0 8.0 0.00 0.00 0.00 47 1017.0
20260905192530 74 217 4.0 7.0 0.00 0.00 0.00 48 1017.0
20260905192029 70 180 5.0 7.0 0.00 0.00 0.00 50 1017.0
20260905191530 69 214 4.0 6.0 0.00 0.00 0.00 59 1017.2
20260905191029 68 244 1.0 6.0 0.00 0.00 0.00 49 1017.2
20260905190529 72 222 4.0 6.0 0.00 0.00 0.00 47 1017.2
20260905190029 72 181 4.0 7.0 0.00 0.00 0.00 50 1017.3
20260905185529 72 201 4.0 7.0 0.00 0.00 0.00 51 1017.4
20260905185025 69 200 3.0 6.0 0.00 0.00 0.00 54 1017.5
20260905184524 66 196 1.0 5.0 0.00 0.00 0.00 58 1017.6
20260905184024 67 201 2.0 6.0 0.00 0.00 0.00 57 1017.7
20260905183523 66 231 3.0 6.0 0.00 0.00 0.00 56 1017.7
20260905183031 65 221 1.0 7.0 0.00 0.00 0.00 57 1017.8
20260905182524 67 212 2.0 7.0 0.00 0.00 0.00 60 1017.8
20260905182024 67 186 4.0 5.0 0.00 0.00 0.00 62 1017.9
20260905181521 64 210 3.0 5.0 0.00 0.00 0.00 74 1018.1
20260905181020 60 221 2.0 4.0 0.00 0.00 0.00 74 1018.1
20260905180521 59 221 2.0 4.0 0.00 0.00 0.00 76 1018.1
20260905180018 58 221 1.0 3.0 0.00 0.00 0.00 76 1018.2
20260905175522 58 60 1.0 3.0 0.00 0.00 0.00 74 1018.2
20260905175017 58 60 1.0 3.0 0.00 0.00 0.00 75 1018.2
20260905174516 58 58 0.0 2.0 0.00 0.00 0.00 71 1018.2
20260905174016 58 59 1.0 3.0 0.00 0.00 0.00 70 1018.2
20260905173517 58 59 1.0 3.0 0.00 0.00 0.00 71 1018.2
20260905173043 58 59 0.0 1.0 0.00 0.00 0.00 71 1018.2
20260905172516 58 59 0.0 2.0 0.00 0.00 0.00 70 1018.3
20260905172017 57 59 0.0 3.0 0.00 0.00 0.00 69 1018.3
20260905171516 57 59 0.0 3.0 0.00 0.00 0.00 71 1018.3
20260905171018 57 59 0.0 1.0 0.00 0.00 0.00 71 1018.2
20260905170515 57 59 0.0 0.0 0.00 0.00 0.00 71 1018.3
20260905170016 57 59 0.0 2.0 0.00 0.00 0.00 72 1018.2
20260905165514 58 59 0.0 1.0 0.00 0.00 0.00 71 1018.3
20260905165014 58 59 0.0 2.0 0.00 0.00 0.00 71 1018.3
20260905164513 58 59 0.0 2.0 0.00 0.00 0.00 72 1018.3
20260905164015 57 59 0.0 1.0 0.00 0.00 0.00 72 1018.3
20260905163513 57 59 0.0 1.0 0.00 0.00 0.00 71 1018.3
20260905163013 58 59 0.0 2.0 0.00 0.00 0.00 72 1018.3
20260905162515 57 59 0.0 2.0 0.00 0.00 0.00 73 1018.3
20260905162009 57 59 0.0 1.0 0.00 0.00 0.00 73 1018.2
20260905161508 56 59 0.0 1.0 0.00 0.00 0.00 75 1018.2
20260905161011 56 59 0.0 1.0 0.00 0.00 0.00 75 1018.2
20260905160507 55 59 0.0 2.0 0.00 0.00 0.00 76 1018.2
20260905160006 55 59 0.0 3.0 0.00 0.00 0.00 76 1018.3
20260905155505 55 59 0.0 3.0 0.00 0.00 0.00 77 1018.2
20260905155004 54 60 0.0 2.0 0.00 0.00 0.00 77 1018.2
20260905154613 54 60 0.0 3.0 0.00 0.00 0.00 77 1018.2
20260905154004 54 23 0.0 3.0 0.00 0.00 0.00 78 1018.2
20260905153504 54 23 0.0 2.0 0.00 0.00 0.00 79 1018.1
20260905153001 53 23 0.0 2.0 0.00 0.00 0.00 79 1018.2
20260905152602 53 23 0.0 0.0 0.00 0.00 0.00 79 1018.2
20260905152059 53 23 0.0 1.0 0.00 0.00 0.00 79 1018.3
20260905151601 52 23 0.0 1.0 0.00 0.00 0.00 79 1018.3
20260905151055 52 23 0.0 1.0 0.00 0.00 0.00 79 1018.2
20260905150555 52 23 0.0 2.0 0.00 0.00 0.00 79 1018.3
20260905150054 52 27 0.0 2.0 0.00 0.01 0.00 80 1018.2
20260905145552 52 31 0.0 0.0 0.00 0.01 0.00 80 1018.2
20260905145052 52 31 0.0 1.0 0.00 0.01 0.00 80 1018.2
20260905144557 51 31 0.0 1.0 0.00 0.01 0.00 80 1018.1
20260905144050 51 31 0.0 1.0 0.00 0.01 0.00 80 1018.1
20260905143551 51 31 0.0 1.0 0.00 0.01 0.00 80 1018.1
20260905143051 51 31 0.0 2.0 0.00 0.01 0.00 80 1018.1
20260905142551 51 31 0.0 2.0 0.00 0.01 0.00 80 1018.0
20260905142047 51 31 0.0 2.0 0.00 0.01 0.00 80 1018.0
20260905141547 51 31 0.0 2.0 0.00 0.01 0.00 80 1018.0
20260905141046 51 31 0.0 1.0 0.00 0.01 0.00 80 1018.0
20260905140545 51 31 0.0 1.0 0.00 0.01 0.00 80 1017.9
20260905140046 51 31 0.0 1.0 0.00 0.02 0.00 80 1017.8
20260905135544 51 31 0.0 1.0 0.00 0.02 0.00 80 1017.8
20260905135043 51 31 0.0 1.0 0.00 0.02 0.00 80 1017.7
20260905134554 51 31 0.0 0.0 0.00 0.02 0.00 80 1017.8
20260905134041 51 31 0.0 0.0 0.00 0.02 0.00 80 1017.6
20260905133540 51 31 0.0 1.0 0.00 0.02 0.00 80 1017.6
20260905133041 51 31 0.0 1.0 0.00 0.02 0.00 79 1017.6
20260905132540 51 31 0.0 1.0 0.00 0.02 0.00 79 1017.5
20260905132041 51 31 0.0 0.0 0.00 0.02 0.00 79 1017.4
20260905131538 52 31 0.0 1.0 0.00 0.02 0.00 78 1017.4
20260905131038 52 31 0.0 1.0 0.00 0.02 0.00 78 1017.4
20260905130538 52 31 0.0 1.0 0.00 0.02 0.00 78 1017.4
20260905130037 52 31 0.0 2.0 0.00 0.02 0.00 78 1017.4
20260905125537 52 31 0.0 1.0 0.00 0.02 0.00 78 1017.4
20260905125040 52 31 0.0 3.0 0.00 0.02 0.00 78 1017.3
20260905124541 52 31 0.0 3.0 0.00 0.02 0.00 78 1017.4
20260905124036 52 31 0.0 3.0 0.00 0.02 0.00 77 1017.4
20260905123537 52 31 1.0 3.0 0.00 0.02 0.00 77 1017.4
20260905123036 52 31 0.0 3.0 0.00 0.02 0.00 77 1017.4
20260905122536 52 31 0.0 3.0 0.00 0.02 0.00 77 1017.4
20260905122037 52 27 0.0 1.0 0.00 0.02 0.00 78 1017.5
20260905121535 52 27 0.0 1.0 0.00 0.02 0.00 78 1017.4
20260905121035 52 27 0.0 1.0 0.00 0.02 0.00 78 1017.4
20260905120534 52 27 0.0 1.0 0.00 0.02 0.00 78 1017.3
20260905120035 52 27 0.0 3.0 0.00 0.02 0.00 78 1017.3
20260905115533 52 27 0.0 3.0 0.00 0.02 0.00 78 1017.3
20260905115034 51 2 0.0 2.0 0.00 0.02 0.00 78 1017.3
20260905114534 51 2 0.0 2.0 0.00 0.02 0.00 78 1017.3
20260905114035 51 2 0.0 2.0 0.00 0.02 0.00 78 1017.3
20260905113535 51 2 1.0 1.0 0.00 0.02 0.00 78 1017.2
20260905113031 52 2 0.0 3.0 0.00 0.02 0.00 78 1017.3
20260905112532 52 2 0.0 3.0 0.00 0.02 0.00 77 1017.3
20260905112031 52 2 0.0 1.0 0.00 0.02 0.00 77 1017.2
20260905111535 52 2 0.0 1.0 0.00 0.02 0.00 77 1017.2
20260905111031 52 2 0.0 0.0 0.00 0.02 0.00 77 1017.2
20260905110531 52 2 0.0 0.0 0.00 0.02 0.00 77 1017.1
20260905110033 52 2 0.0 1.0 0.00 0.03 0.00 76 1017.1
20260905105531 52 2 0.0 1.0 0.00 0.03 0.00 76 1017.1
20260905105030 52 2 0.0 0.0 0.00 0.03 0.00 76 1017.1
20260905104530 52 2 0.0 1.0 0.00 0.03 0.00 76 1017.1
20260905104034 52 2 0.0 2.0 0.00 0.03 0.00 76 1017.1
20260905103531 52 2 0.0 2.0 0.00 0.03 0.00 77 1017.1
20260905103029 52 49 0.0 2.0 0.00 0.03 0.00 77 1017.1
20260905102529 52 49 0.0 2.0 0.00 0.03 0.00 78 1017.0
20260905102029 52 50 0.0 0.0 0.00 0.03 0.00 78 1017.0
20260905101529 52 50 0.0 0.0 0.00 0.03 0.00 78 1016.9
20260905101028 52 50 0.0 0.0 0.00 0.03 0.00 78 1017.0
20260905100528 52 50 0.0 0.0 0.00 0.03 0.00 77 1017.1
20260905100028 52 50 0.0 1.0 0.00 0.03 0.00 77 1017.1
20260905095531 52 50 0.0 1.0 0.00 0.03 0.00 77 1017.2
20260905095027 52 50 0.0 1.0 0.00 0.03 0.00 77 1017.2
20260905094528 52 50 0.0 2.0 0.00 0.03 0.00 77 1017.2
20260905094025 52 50 0.0 2.0 0.00 0.03 0.00 77 1017.2
20260905093524 52 64 0.0 5.0 0.00 0.03 0.00 76 1017.2
20260905093025 53 64 3.0 5.0 0.00 0.03 0.00 76 1017.2
20260905092523 53 27 2.0 4.0 0.00 0.03 0.00 76 1017.2
20260905092023 53 61 1.0 2.0 0.00 0.03 0.00 75 1017.2
20260905091523 53 61 0.0 1.0 0.00 0.03 0.00 75 1017.1
20260905091022 53 61 0.0 1.0 0.00 0.03 0.00 75 1017.1
20260905090522 53 61 0.0 1.0 0.00 0.03 0.00 75 1017.0
20260905090023 53 61 0.0 1.0 0.00 0.03 0.00 75 1017.0
20260905085522 53 61 0.0 1.0 0.00 0.03 0.00 75 1017.0
20260905085022 53 61 0.0 1.0 0.00 0.03 0.00 75 1017.0
20260905084521 53 61 0.0 1.0 0.00 0.03 0.00 75 1017.0
20260905084021 53 61 0.0 2.0 0.00 0.03 0.00 75 1017.0
20260905083520 53 61 0.0 2.0 0.00 0.03 0.00 75 1017.0
20260905083024 53 61 0.0 1.0 0.00 0.03 0.00 75 1017.0
20260905082520 53 61 0.0 1.0 0.00 0.03 0.00 75 1016.9
20260905082020 53 61 0.0 1.0 0.00 0.03 0.00 75 1016.9
20260905081521 53 61 0.0 1.0 0.00 0.03 0.00 75 1016.9
20260905081018 53 61 0.0 1.0 0.00 0.03 0.00 75 1016.8
20260905080518 53 61 0.0 4.0 0.00 0.03 0.00 75 1016.8
20260905080017 53 61 0.0 4.0 0.00 0.03 0.00 74 1016.8
20260905075516 53 61 0.0 5.0 0.00 0.03 0.00 73 1016.8
20260905075015 54 61 0.0 8.0 0.00 0.03 0.00 72 1016.7
20260905074523 54 356 3.0 8.0 0.00 0.03 0.00 73 1016.7
20260905074014 54 45 2.0 6.0 0.00 0.03 0.00 72 1016.7
20260905073515 55 52 2.0 6.0 0.00 0.03 0.00 70 1016.6
20260905073012 55 63 2.0 6.0 0.00 0.03 0.00 70 1016.6
20260905072512 54 65 0.0 4.0 0.00 0.03 0.00 70 1016.4
20260905072013 54 67 0.0 4.0 0.00 0.03 0.00 70 1016.5
20260905071517 54 62 0.0 2.0 0.00 0.03 0.00 70 1016.3
20260905071009 54 17 0.0 2.0 0.00 0.03 0.00 71 1016.2
20260905070507 54 6 0.0 4.0 0.00 0.03 0.00 72 1016.2
20260905070008 54 15 0.0 2.0 0.00 0.03 0.03 73 1016.1
20260905065510 54 36 0.0 2.0 0.00 0.03 0.03 73 1016.0
20260905065006 54 45 0.0 2.0 0.00 0.03 0.03 73 1016.1
20260905064507 53 45 0.0 1.0 0.00 0.03 0.03 73 1016.1
20260905064009 53 45 0.0 1.0 0.00 0.03 0.03 74 1016.1
20260905063506 53 45 0.0 1.0 0.00 0.03 0.03 74 1016.1
20260905063006 54 45 0.0 1.0 0.00 0.03 0.03 73 1016.0
20260905062511 54 45 0.0 4.0 0.00 0.03 0.03 72 1016.0
20260905062011 54 45 1.0 6.0 0.00 0.03 0.03 72 1016.0
20260905061509 54 21 1.0 4.0 0.00 0.03 0.03 72 1016.1
20260905061005 55 341 0.0 4.0 0.00 0.03 0.03 71 1016.2
20260905060506 55 331 0.0 5.0 0.00 0.03 0.03 72 1016.2
20260905060005 54 313 2.0 5.0 0.00 0.03 0.03 72 1016.2
20260905055504 54 33 2.0 5.0 0.00 0.03 0.03 72 1016.1
20260905055004 54 3 1.0 6.0 0.00 0.03 0.03 72 1016.0
20260905054506 54 347 1.0 5.0 0.00 0.03 0.03 73 1016.0
20260905054003 54 344 0.0 3.0 0.00 0.03 0.03 72 1015.9
20260905053503 54 344 0.0 3.0 0.00 0.03 0.03 72 1015.7
20260905053004 54 344 1.0 2.0 0.00 0.03 0.03 71 1015.7
20260905052503 54 344 0.0 3.0 0.00 0.03 0.03 71 1015.8
20260905052003 55 344 1.0 3.0 0.00 0.03 0.03 70 1015.8
20260905051503 55 344 0.0 2.0 0.00 0.03 0.03 70 1015.8
20260905051002 54 344 0.0 2.0 0.00 0.03 0.03 72 1015.8
20260905050503 54 344 0.0 2.0 0.00 0.03 0.03 72 1015.7
20260905050002 54 344 0.0 1.0 0.00 0.03 0.03 73 1015.8
20260905045501 54 344 0.0 1.0 0.00 0.03 0.03 73 1015.7
20260905045100 54 344 0.0 1.0 0.00 0.03 0.03 74 1015.7
20260905044609 53 344 0.0 1.0 0.00 0.03 0.03 75 1015.7
20260905044100 53 344 0.0 2.0 0.00 0.03 0.03 75 1015.7
20260905043600 53 344 0.0 2.0 0.00 0.03 0.03 75 1015.7
20260905043100 53 344 1.0 2.0 0.00 0.03 0.03 74 1015.7
20260905042602 53 344 0.0 1.0 0.00 0.03 0.03 74 1015.6
20260905042059 54 344 0.0 1.0 0.00 0.03 0.03 72 1015.6
20260905041601 54 344 0.0 3.0 0.00 0.03 0.03 71 1015.6
20260905041059 55 344 0.0 3.0 0.00 0.03 0.03 70 1015.6
20260905040559 54 344 0.0 2.0 0.00 0.03 0.03 72 1015.5
20260905040059 54 344 0.0 2.0 0.00 0.03 0.03 72 1015.5
20260905035559 54 344 0.0 3.0 0.00 0.03 0.03 73 1015.5
20260905035057 55 344 1.0 2.0 0.00 0.03 0.03 72 1015.4
20260905034603 55 344 0.0 1.0 0.00 0.03 0.03 71 1015.3
20260905034055 55 344 0.0 0.0 0.00 0.03 0.03 71 1015.2
20260905033556 56 344 0.0 0.0 0.00 0.03 0.03 70 1015.2
20260905033055 56 344 0.0 0.0 0.00 0.03 0.03 70 1015.2
20260905032555 56 344 0.0 1.0 0.00 0.03 0.03 70 1015.2
20260905032055 56 344 0.0 2.0 0.00 0.03 0.03 70 1015.1
20260905031559 56 344 0.0 2.0 0.00 0.03 0.03 71 1015.0
20260905031054 57 344 0.0 2.0 0.00 0.03 0.03 72 1015.0
20260905030553 57 344 0.0 2.0 0.00 0.03 0.03 72 1015.0
20260905030059 57 344 0.0 2.0 0.00 0.03 0.03 73 1015.0
20260905025552 57 344 0.0 1.0 0.00 0.03 0.03 73 1015.0
20260905025052 57 344 0.0 2.0 0.00 0.03 0.03 72 1014.8
20260905024559 58 344 0.0 2.0 0.00 0.03 0.03 72 1014.8
20260905024051 58 344 0.0 4.0 0.00 0.03 0.03 71 1014.7
20260905023551 58 344 0.0 4.0 0.00 0.03 0.03 71 1014.7
20260905023051 58 341 0.0 2.0 0.00 0.03 0.03 71 1014.8
20260905022550 58 341 0.0 2.0 0.00 0.03 0.03 71 1014.8
20260905022050 58 341 0.0 2.0 0.00 0.03 0.03 70 1014.7
20260905021550 58 341 0.0 1.0 0.00 0.03 0.03 69 1014.8
20260905021050 58 341 0.0 2.0 0.00 0.03 0.03 69 1014.7
20260905020550 59 341 0.0 2.0 0.00 0.03 0.03 67 1014.6
20260905020049 59 319 0.0 3.0 0.00 0.03 0.03 67 1014.5
20260905015548 60 319 0.0 3.0 0.00 0.03 0.03 65 1014.5
20260905015048 60 256 0.0 5.0 0.00 0.03 0.03 64 1014.4
20260905014547 60 258 0.0 6.0 0.00 0.03 0.03 64 1014.4
20260905014046 61 264 1.0 8.0 0.00 0.03 0.03 63 1014.3
20260905013549 61 348 2.0 8.0 0.00 0.03 0.03 63 1014.3
20260905013047 61 277 2.0 8.0 0.00 0.03 0.03 62 1014.3
20260905012547 61 260 3.0 8.0 0.00 0.03 0.03 62 1014.2
20260905012045 61 269 1.0 9.0 0.00 0.03 0.03 62 1014.3
20260905011545 61 270 1.0 9.0 0.00 0.03 0.03 62 1014.1
20260905011044 61 257 2.0 10.0 0.00 0.03 0.03 63 1014.2
20260905010545 61 191 2.0 10.0 0.00 0.03 0.03 62 1014.1
20260905010046 61 250 3.0 12.0 0.00 0.03 0.03 62 1014.1
20260905005545 61 337 1.0 12.0 0.00 0.03 0.03 62 1014.0
20260905005044 61 258 2.0 14.0 0.00 0.03 0.03 62 1014.1
20260905004547 62 267 5.0 14.0 0.00 0.03 0.03 63 1014.0
20260905004047 62 268 3.0 12.0 0.00 0.03 0.03 62 1014.0
20260905003543 62 267 3.0 12.0 0.00 0.03 0.03 63 1013.9
20260905003046 62 306 3.0 14.0 0.00 0.03 0.03 63 1013.9
20260905002543 62 250 5.0 15.0 0.00 0.03 0.03 63 1013.8
20260905002044 62 276 6.0 17.0 0.00 0.03 0.03 63 1013.8
20260905001543 62 271 6.0 17.0 0.00 0.03 0.03 64 1013.8
20260905001043 62 276 8.0 17.0 0.00 0.03 0.03 63 1013.7
20260905000542 62 262 5.0 17.0 0.00 0.03 0.03 62 1013.7
20260905000042 63 221 5.0 17.0 0.00 0.03 0.03 63 1013.6
20260904235542 63 258 5.0 12.0 0.00 0.03 0.03 63 1013.6
20260904235045 63 217 5.0 12.0 0.00 0.03 0.03 63 1013.6